When you browse on this site, cookies collect data to enhance your experience and personalize the content and advertising you see.
Visit our Privacy Policy to learn more. By continuing to use the site, you agree to this use of cookies and data.
  • en France
  • Liste des pays
  • À 7 jours
  • Température de l'eau
  • Carte météo
  • Widgets météo
  • user-avatar
    Se connecter

    Météo par heure à Charlottetown

    Ce jour, 31 Mai, Dimanche

    Heure Température Précipitation Vent Pression Humidité
    00:00 +14°C° 0 mm 4 m/s 755 mmHg 89%
    01:00 +13°C° 0 mm 3 m/s 755 mmHg 90%
    02:00 +14°C° 0 mm 1 m/s 754 mmHg 92%
    03:00 +14°C° 0 mm 1 m/s 754 mmHg 93%
    04:00 +14°C° 0 mm 1 m/s 754 mmHg 94%
    05:00 +13°C° 0 mm 2 m/s 754 mmHg 95%
    06:00 +14°C° 0 mm 2 m/s 754 mmHg 94%
    07:00 +15°C° 0 mm 2 m/s 754 mmHg 92%
    08:00 +16°C° 0 mm 2 m/s 754 mmHg 87%
    09:00 +17°C° 0 mm 2 m/s 754 mmHg 84%
    10:00 +18°C° 0 mm 3 m/s 754 mmHg 80%
    11:00 +19°C° 0 mm 3 m/s 754 mmHg 77%
    12:00 +19°C° 0.1 mm 3 m/s 754 mmHg 73%
    13:00 +20°C° 0.1 mm 4 m/s 754 mmHg 70%
    14:00 +20°C° 0.1 mm 4 m/s 754 mmHg 67%
    15:00 +19°C° 0.1 mm 4 m/s 755 mmHg 72%
    16:00 +17°C° 0.1 mm 4 m/s 755 mmHg 76%
    17:00 +14°C° 0.1 mm 5 m/s 755 mmHg 81%
    18:00 +13°C° 0 mm 4 m/s 756 mmHg 80%
    19:00 +12°C° 0 mm 4 m/s 756 mmHg 79%
    20:00 +10°C° 0 mm 4 m/s 757 mmHg 78%
    21:00 +10°C° 0 mm 4 m/s 757 mmHg 77%
    22:00 +10°C° 0 mm 4 m/s 757 mmHg 76%
    23:00 +9°C° 0 mm 3 m/s 758 mmHg 74%

    Demain, 1 Juin, Lundi

    Heure Température Précipitation Vent Pression Humidité
    00:00 +9°C° 0 mm 3 m/s 758 mmHg 75%
    01:00 +8°C° 0 mm 2 m/s 758 mmHg 75%
    02:00 +8°C° 0 mm 2 m/s 758 mmHg 75%
    03:00 +8°C° 0 mm 2 m/s 758 mmHg 76%
    04:00 +8°C° 0 mm 2 m/s 758 mmHg 78%
    05:00 +7°C° 0 mm 2 m/s 758 mmHg 79%
    06:00 +8°C° 0 mm 2 m/s 759 mmHg 75%
    07:00 +9°C° 0 mm 2 m/s 759 mmHg 71%
    08:00 +10°C° 0 mm 3 m/s 759 mmHg 67%
    09:00 +11°C° 0 mm 3 m/s 759 mmHg 66%
    10:00 +11°C° 0 mm 4 m/s 759 mmHg 64%
    11:00 +11°C° 0 mm 4 m/s 759 mmHg 62%
    12:00 +11°C° 0 mm 4 m/s 759 mmHg 63%
    13:00 +10°C° 0 mm 5 m/s 759 mmHg 64%
    14:00 +10°C° 0 mm 5 m/s 758 mmHg 65%
    15:00 +10°C° 0 mm 4 m/s 758 mmHg 68%
    16:00 +8°C° 0 mm 4 m/s 759 mmHg 70%
    17:00 +8°C° 0 mm 4 m/s 759 mmHg 72%
    18:00 +8°C° 0 mm 3 m/s 759 mmHg 77%
    19:00 +7°C° 0 mm 3 m/s 759 mmHg 81%
    20:00 +4°C° 0 mm 3 m/s 759 mmHg 85%
    21:00 +4°C° 0 mm 3 m/s 759 mmHg 85%
    22:00 +4°C° 0 mm 3 m/s 759 mmHg 86%
    23:00 +4°C° 0 mm 3 m/s 758 mmHg 86%

    Après-demain, 2 Juin, Mardi

    Heure Température Précipitation Vent Pression Humidité
    00:00 +4°C° 0 mm 4 m/s 758 mmHg 82%
    01:00 +4°C° 0 mm 4 m/s 758 mmHg 78%
    02:00 +3°C° 0 mm 5 m/s 758 mmHg 74%
    03:00 +3°C° 0 mm 5 m/s 757 mmHg 72%
    04:00 +3°C° 0 mm 6 m/s 757 mmHg 70%
    05:00 +4°C° 0 mm 7 m/s 756 mmHg 68%
    06:00 +5°C° 0 mm 7 m/s 756 mmHg 66%
    07:00 +6°C° 0 mm 7 m/s 756 mmHg 65%
    08:00 +8°C° 0 mm 7 m/s 755 mmHg 63%
    09:00 +8°C° 0 mm 7 m/s 755 mmHg 63%
    10:00 +9°C° 0 mm 7 m/s 754 mmHg 63%
    11:00 +9°C° 0 mm 8 m/s 754 mmHg 62%
    12:00 +9°C° 0 mm 7 m/s 754 mmHg 61%
    13:00 +10°C° 0 mm 7 m/s 753 mmHg 60%
    14:00 +10°C° 0 mm 6 m/s 753 mmHg 59%
    15:00 +10°C° 0 mm 5 m/s 753 mmHg 59%
    16:00 +11°C° 0 mm 3 m/s 753 mmHg 59%
    17:00 +12°C° 0 mm 2 m/s 753 mmHg 59%
    18:00 +10°C° 0 mm 2 m/s 753 mmHg 63%
    19:00 +8°C° 0 mm 2 m/s 753 mmHg 67%
    20:00 +7°C° 0 mm 2 m/s 754 mmHg 71%
    21:00 +7°C° 0 mm 3 m/s 754 mmHg 72%
    22:00 +6°C° 0 mm 4 m/s 753 mmHg 73%
    23:00 +6°C° 0 mm 5 m/s 753 mmHg 74%

    3 Juin, Mercredi

    Heure Température Précipitation Vent Pression Humidité
    00:00 +6°C° 0 mm 5 m/s 753 mmHg 76%
    01:00 +6°C° 0 mm 5 m/s 753 mmHg 77%
    02:00 +5°C° 0 mm 6 m/s 752 mmHg 78%
    03:00 +6°C° 0 mm 5 m/s 752 mmHg 80%
    04:00 +5°C° 0 mm 5 m/s 752 mmHg 83%
    05:00 +5°C° 0 mm 4 m/s 752 mmHg 85%
    06:00 +5°C° 0.6 mm 5 m/s 752 mmHg 88%
    07:00 +5°C° 0.6 mm 6 m/s 752 mmHg 90%
    08:00 +5°C° 0.6 mm 6 m/s 751 mmHg 93%
    09:00 +5°C° 2.5 mm 7 m/s 751 mmHg 93%
    10:00 +5°C° 2.5 mm 7 m/s 750 mmHg 94%
    11:00 +5°C° 2.5 mm 8 m/s 750 mmHg 94%
    12:00 +6°C° 0.6 mm 7 m/s 749 mmHg 93%
    13:00 +8°C° 0.6 mm 7 m/s 748 mmHg 92%
    14:00 +9°C° 0.6 mm 6 m/s 748 mmHg 91%
    15:00 +10°C° 0 mm 5 m/s 748 mmHg 84%
    16:00 +12°C° 0 mm 4 m/s 748 mmHg 77%
    17:00 +13°C° 0 mm 4 m/s 748 mmHg 70%
    18:00 +11°C° 0 mm 4 m/s 749 mmHg 74%
    19:00 +10°C° 0 mm 4 m/s 749 mmHg 79%
    20:00 +8°C° 0 mm 4 m/s 749 mmHg 83%
    21:00 +7°C° 0 mm 4 m/s 750 mmHg 82%
    22:00 +7°C° 0 mm 5 m/s 750 mmHg 80%
    23:00 +7°C° 0 mm 6 m/s 750 mmHg 79%

    4 Juin, Jeudi

    Heure Température Précipitation Vent Pression Humidité
    00:00 +7°C° 0 mm 5 m/s 750 mmHg 80%
    01:00 +7°C° 0 mm 5 m/s 750 mmHg 81%
    02:00 +6°C° 0 mm 5 m/s 750 mmHg 82%
    03:00 +6°C° 0 mm 4 m/s 750 mmHg 83%
    04:00 +6°C° 0 mm 4 m/s 751 mmHg 84%
    05:00 +6°C° 0 mm 4 m/s 751 mmHg 85%
    06:00 +8°C° 0 mm 4 m/s 751 mmHg 85%
    07:00 +10°C° 0 mm 4 m/s 751 mmHg 84%
    08:00 +12°C° 0 mm 5 m/s 751 mmHg 83%
    09:00 +13°C° 0 mm 4 m/s 751 mmHg 81%
    10:00 +15°C° 0 mm 4 m/s 751 mmHg 79%
    11:00 +17°C° 0 mm 4 m/s 751 mmHg 77%
    12:00 +18°C° 0 mm 4 m/s 750 mmHg 75%
    13:00 +18°C° 0 mm 4 m/s 750 mmHg 73%
    14:00 +19°C° 0 mm 4 m/s 750 mmHg 71%
    15:00 +19°C° 0 mm 4 m/s 750 mmHg 71%
    16:00 +19°C° 0 mm 4 m/s 750 mmHg 70%
    17:00 +19°C° 0 mm 4 m/s 750 mmHg 70%
    18:00 +18°C° 0 mm 4 m/s 750 mmHg 75%
    19:00 +15°C° 0 mm 4 m/s 751 mmHg 79%
    20:00 +14°C° 0 mm 4 m/s 751 mmHg 84%
    21:00 +13°C° 0 mm 5 m/s 751 mmHg 86%
    22:00 +13°C° 0 mm 5 m/s 752 mmHg 88%
    23:00 +12°C° 0 mm 5 m/s 752 mmHg 90%

    5 Juin, Vendredi

    Heure Température Précipitation Vent Pression Humidité
    00:00 +12°C° 0 mm 5 m/s 752 mmHg 91%
    01:00 +12°C° 0 mm 5 m/s 753 mmHg 91%
    02:00 +12°C° 0 mm 5 m/s 753 mmHg 91%
    03:00 +10°C° 0 mm 5 m/s 753 mmHg 91%
    04:00 +10°C° 0 mm 5 m/s 754 mmHg 91%
    05:00 +10°C° 0 mm 4 m/s 754 mmHg 91%
    06:00 +11°C° 0 mm 4 m/s 755 mmHg 83%
    07:00 +13°C° 0 mm 3 m/s 755 mmHg 76%
    08:00 +14°C° 0 mm 3 m/s 756 mmHg 68%
    09:00 +16°C° 0 mm 3 m/s 756 mmHg 65%
    10:00 +16°C° 0 mm 2 m/s 756 mmHg 63%
    11:00 +17°C° 0 mm 2 m/s 756 mmHg 60%
    12:00 +18°C° 0 mm 2 m/s 756 mmHg 60%
    13:00 +18°C° 0 mm 2 m/s 756 mmHg 59%
    14:00 +18°C° 0 mm 2 m/s 756 mmHg 59%
    15:00 +18°C° 0 mm 3 m/s 756 mmHg 62%
    16:00 +18°C° 0 mm 3 m/s 756 mmHg 64%
    17:00 +17°C° 0 mm 4 m/s 756 mmHg 67%
    18:00 +14°C° 0 mm 4 m/s 756 mmHg 70%
    19:00 +12°C° 0 mm 5 m/s 756 mmHg 72%
    20:00 +10°C° 0 mm 5 m/s 756 mmHg 75%
    21:00 +10°C° 0 mm 4 m/s 756 mmHg 76%
    22:00 +10°C° 0 mm 4 m/s 756 mmHg 77%
    23:00 +10°C° 0 mm 3 m/s 756 mmHg 78%
    Voir plus